• Modellbau
    Modellbau Unsere Modellbauer lassen ihre Fluggeräte zu neuen Rekorden aufsteigen.
  • Segelflug
    Segelflug Im Gleitflug genießen unsere Segelflieger die Freiheit über den Wolken.
  • Motorflug
    Motorflug Unseren Piloten steht ein moderner Flugzeugpark zur Verfügung.

Neuigkeiten

Wetter

Webcam

LIVEBILD VOM FLUGPLATZ

image

Rufen Sie auch unser Tagesarchiv auf!

Wetterstation

MESSWERTE UNSERER WETTERSTATION
Wind 071° 00 kn (Böen 01 kn)
Temperatur 8.9 °C
Luftdruck 1014 hPa
Zeitpunkt: 06:47 Ortszeit

METAR Stuttgart

OHNE GEWÄHR
EDDS 180420Z 24004KT 200V280 9999 SCT040 09/07 Q1014 NOSIG

Seite durchsuchen

Über uns

image Gemeinsam gehen wir im Verein unserem Hobby, der Fliegerei, nach - im Segelflug, Modellbau und Motorflug.
 
image Wir verfügen über moderne Fluggeräte und bieten eine hochwertige Pilotenausbildung.
 
image Unser Flugplatz liegt bei Stuttgart in Poltringen / Ammerbuch. Besuchen Sie uns doch einmal!
 

Termine

Derzeit sind keine öffentlichen Termine hinterlegt.